Check out our new BloomSky Weather System.

Active alerts


No alerts


Thunder radar  blitzortung!


Rain radar more information rain snow radar


Visit our other weather sites:

Template documentation
and downloads

And another site



Weather Underground History page Text

Daily Summary for June 4, 2017 Units:  Metric    English   Both
« Previous Day
Next Day »
Daily Weekly Monthly Yearly Custom
  High: Low: Average:
Temperature: 31.9 °C 21.5 °C 25.6 °C
Dew Point: 24.5 °C 20.3 °C 22.5 °C
Humidity: 99 % 61 % 85 %
Wind Speed: 24.1 km/h 0 km/h 1.9 km/h
Wind Gust: 30.6 km/h - -
Wind:- - SW
Pressure: 1011.4 hPa 1007 hPa -
Precipitation: 17.78 mm    
Historical Graphs
 
 
Tabular Data for June 4, 2017
Time Temperature Dew Point Pressure Wind Wind Speed Wind Gust Humidity Rainfall Rate (Hourly)
00:00 24.1 °C 22.7 °C 1011.4 hPa Calm   3.2 km/h 92 % 0 mm
00:05 24 °C 22.6 °C 1011.4 hPa Calm   3.2 km/h 92 % 0 mm
00:10 23.9 °C 22.7 °C 1011.4 hPa Calm   3.2 km/h 93 % 0 mm
00:15 23.9 °C 22.7 °C 1011.4 hPa Calm   3.2 km/h 93 % 0 mm
00:17 23.9 °C 22.7 °C 1011.4 hPa Calm   3.2 km/h 93 % 0 mm
00:22 23.8 °C 22.6 °C 1011.4 hPa Calm   3.2 km/h 93 % 0 mm
00:27 23.8 °C 22.6 °C 1011.1 hPa Calm   3.2 km/h 93 % 0 mm
00:32 23.8 °C 22.8 °C 1011.4 hPa Calm   1.6 km/h 94 % 0 mm
00:37 23.8 °C 22.8 °C 1011.4 hPa Calm   1.6 km/h 94 % 0 mm
00:42 23.7 °C 22.7 °C 1011.4 hPa Calm   1.6 km/h 94 % 0 mm
00:47 23.7 °C 22.7 °C 1011.4 hPa Calm   1.6 km/h 94 % 0 mm
00:52 23.7 °C 22.7 °C 1011.1 hPa Calm   1.6 km/h 94 % 0 mm
00:57 23.7 °C 22.7 °C 1011.1 hPa Calm   1.6 km/h 94 % 0 mm
01:02 23.6 °C 22.6 °C 1010.7 hPa Calm   1.6 km/h 94 % 0 mm
01:07 23.6 °C 22.6 °C 1011.1 hPa Calm   1.6 km/h 94 % 0 mm
01:12 23.6 °C 22.6 °C 1010.7 hPa Calm   1.6 km/h 94 % 0 mm
01:17 23.6 °C 22.8 °C 1010.7 hPa Calm   1.6 km/h 95 % 0 mm
01:22 23.6 °C 22.8 °C 1010.7 hPa Calm   1.6 km/h 95 % 0 mm
01:27 23.5 °C 22.7 °C 1010.7 hPa Calm   3.2 km/h 95 % 0 mm
01:32 23.5 °C 22.7 °C 1010.7 hPa Calm   3.2 km/h 95 % 0 mm
01:37 23.4 °C 22.6 °C 1010.7 hPa Calm   3.2 km/h 95 % 0 mm
01:42 23.4 °C 22.6 °C 1010.4 hPa Calm   1.6 km/h 95 % 0 mm
01:47 23.4 °C 22.6 °C 1010.7 hPa Calm   1.6 km/h 95 % 0 mm
01:53 23.5 °C 22.7 °C 1010.7 hPa Calm   1.6 km/h 95 % 0 mm
01:58 23.5 °C 22.7 °C 1010.7 hPa Calm   1.6 km/h 95 % 0 mm
02:03 23.4 °C 22.6 °C 1010.7 hPa Calm     95 % 0 mm
02:08 23.4 °C 22.6 °C 1010.7 hPa Calm     95 % 0 mm
02:13 23.3 °C 22.5 °C 1010.4 hPa Calm     95 % 0 mm
02:18 23.4 °C 22.7 °C 1010.7 hPa Calm     96 % 0 mm
02:23 23.4 °C 22.7 °C 1010.7 hPa Calm     96 % 0 mm
02:28 23.4 °C 22.7 °C 1010.7 hPa Calm     96 % 0 mm
02:33 23.4 °C 22.7 °C 1010.7 hPa Calm     96 % 0 mm
02:38 23.4 °C 22.7 °C 1010.7 hPa Calm     96 % 0 mm
02:43 23.4 °C 22.7 °C 1010.7 hPa Calm   1.6 km/h 96 % 0 mm
02:48 23.4 °C 22.7 °C 1010.7 hPa Calm   1.6 km/h 96 % 0 mm
02:53 23.4 °C 22.7 °C 1010.7 hPa Calm   1.6 km/h 96 % 0 mm
02:58 23.4 °C 22.7 °C 1010.7 hPa Calm     96 % 0 mm
03:03 23.4 °C 22.7 °C 1010.4 hPa Calm     96 % 0 mm
03:08 23.4 °C 22.7 °C 1010.4 hPa Calm     96 % 0 mm
03:13 23.4 °C 22.7 °C 1010.4 hPa Calm     96 % 0 mm
03:18 23.3 °C 22.6 °C 1010 hPa Calm     96 % 0 mm
03:23 23.3 °C 22.6 °C 1010 hPa Calm     96 % 0 mm
03:28 23.3 °C 22.6 °C 1010 hPa Calm     96 % 0 mm
03:33 23.3 °C 22.6 °C 1010 hPa Calm     96 % 0 mm
03:38 23.3 °C 22.6 °C 1010 hPa Calm     96 % 0 mm
03:43 23.3 °C 22.8 °C 1010 hPa Calm     97 % 0 mm
03:48 23.3 °C 22.8 °C 1009.7 hPa Calm     97 % 0 mm
03:53 23.3 °C 22.8 °C 1009.7 hPa Calm     97 % 0 mm
03:58 23.3 °C 22.8 °C 1009.7 hPa Calm     97 % 0 mm
04:03 23.4 °C 22.9 °C 1010 hPa Calm     97 % 0 mm
04:08 23.4 °C 22.9 °C 1009.7 hPa Calm     97 % 0 mm
04:13 23.4 °C 22.9 °C 1009.4 hPa NNW 1.6 km/h 3.2 km/h 97 % 0 mm
04:18 23.4 °C 22.9 °C 1009.4 hPa Calm   3.2 km/h 97 % 0 mm
04:23 23.3 °C 22.8 °C 1009.7 hPa NW 1.6 km/h 3.2 km/h 97 % 0 mm
04:28 23.4 °C 22.9 °C 1009.7 hPa Calm   4.8 km/h 97 % 0 mm
04:33 23.4 °C 22.9 °C 1009.4 hPa NW 1.6 km/h 4.8 km/h 97 % 0 mm
04:38 23.4 °C 22.9 °C 1009.4 hPa North 3.2 km/h 6.4 km/h 97 % 0 mm
04:43 23.4 °C 22.9 °C 1009.4 hPa North 3.2 km/h 6.4 km/h 97 % 0 mm
04:48 23.4 °C 22.9 °C 1009.4 hPa Calm   6.4 km/h 97 % 0 mm
04:53 23.4 °C 22.9 °C 1009.4 hPa NNW 1.6 km/h 6.4 km/h 97 % 0 mm
04:58 23.3 °C 22.8 °C 1009.4 hPa WNW 3.2 km/h 8 km/h 97 % 0 mm
05:03 23.3 °C 22.8 °C 1009.4 hPa WNW 4.8 km/h 8 km/h 97 % 0 mm
05:08 23.2 °C 22.7 °C 1009.4 hPa NW 3.2 km/h 8 km/h 97 % 0 mm
05:13 23.2 °C 22.7 °C 1009.7 hPa NNW 4.8 km/h 8 km/h 97 % 0 mm
05:18 23.2 °C 22.7 °C 1009.7 hPa NW 3.2 km/h 8 km/h 97 % 0 mm
05:23 23.1 °C 22.6 °C 1009.7 hPa NW 1.6 km/h 8 km/h 97 % 0 mm
05:28 23.1 °C 22.6 °C 1010 hPa North 1.6 km/h 9.7 km/h 97 % 0 mm
05:34 23.1 °C 22.6 °C 1010 hPa East 3.2 km/h 9.7 km/h 97 % 0 mm
05:38 23.1 °C 22.6 °C 1010 hPa Calm   9.7 km/h 97 % 0 mm
05:43 23.1 °C 22.6 °C 1010 hPa Calm   4.8 km/h 97 % 0 mm
05:48 23.1 °C 22.8 °C 1010 hPa Calm   4.8 km/h 98 % 0 mm
05:54 23.1 °C 22.8 °C 1009.7 hPa Calm   3.2 km/h 98 % 0 mm
05:59 23.1 °C 22.8 °C 1010 hPa NNW 1.6 km/h 3.2 km/h 98 % 0 mm
06:04 23.1 °C 22.8 °C 1009.7 hPa Calm   3.2 km/h 98 % 0 mm
06:09 23.1 °C 22.8 °C 1009.7 hPa North 1.6 km/h 3.2 km/h 98 % 0 mm
06:14 23.1 °C 22.6 °C 1009.7 hPa NNW 1.6 km/h 3.2 km/h 97 % 0 mm
06:19 23.1 °C 22.6 °C 1009.7 hPa NW 1.6 km/h 3.2 km/h 97 % 0 mm
06:20 23.1 °C 22.6 °C 1010 hPa Calm   3.2 km/h 97 % 0 mm
06:25 23 °C 22.5 °C 1010 hPa Calm   3.2 km/h 97 % 0 mm
06:30 23 °C 22.5 °C 1010 hPa North 1.6 km/h 3.2 km/h 97 % 0 mm
06:35 23.1 °C 22.6 °C 1010.4 hPa WNW 1.6 km/h 3.2 km/h 97 % 0 mm
06:40 23.1 °C 22.6 °C 1010.4 hPa NW 1.6 km/h 3.2 km/h 97 % 0 mm
06:45 23.1 °C 22.6 °C 1010.4 hPa NW 1.6 km/h 4.8 km/h 97 % 0 mm
06:50 23.1 °C 22.6 °C 1010.4 hPa NW 1.6 km/h 6.4 km/h 97 % 0 mm
06:55 23 °C 22.5 °C 1010.7 hPa NW 1.6 km/h 6.4 km/h 97 % 0 mm
07:01 23 °C 22.5 °C 1010.7 hPa WNW 1.6 km/h 6.4 km/h 97 % 0 mm
07:06 23 °C 22.5 °C 1010.7 hPa NNW 3.2 km/h 6.4 km/h 97 % 0 mm
07:11 23.1 °C 22.4 °C 1010.4 hPa NW 8 km/h 8 km/h 96 % 0 mm
07:16 23.1 °C 22.4 °C 1010.7 hPa WNW 8 km/h 11.3 km/h 96 % 0 mm
07:21 22.8 °C 21.6 °C 1010.7 hPa NW 22.5 km/h 22.5 km/h 93 % 0 mm
07:26 22.3 °C 20.6 °C 1010.7 hPa NW 24.1 km/h 30.6 km/h 90 % 0 mm
07:31 22.3 °C 20.4 °C 1010.7 hPa WNW 9.7 km/h 30.6 km/h 89 % 0 mm
07:36 22.3 °C 20.6 °C 1010.7 hPa NNW 8 km/h 30.6 km/h 90 % 0 mm
07:41 22.1 °C 20.4 °C 1011.1 hPa NW 6.4 km/h 27.4 km/h 90 % 0 mm
07:46 21.9 °C 20.4 °C 1011.1 hPa NW 3.2 km/h 17.7 km/h 91 % 0 mm
07:51 21.8 °C 20.3 °C 1010.7 hPa Calm   17.7 km/h 91 % 0.25 mm
07:56 21.7 °C 20.3 °C 1010.7 hPa NW 3.2 km/h 6.4 km/h 92 % 0.51 mm
08:01 21.7 °C 20.5 °C 1010.7 hPa NW 1.6 km/h 6.4 km/h 93 % 0.76 mm
08:06 21.7 °C 20.5 °C 1010.7 hPa Calm   6.4 km/h 93 % 1.02 mm
08:11 21.6 °C 20.4 °C 1010.7 hPa Calm   4.8 km/h 93 % 1.02 mm
08:16 21.6 °C 20.4 °C 1010.4 hPa Calm   3.2 km/h 93 % 1.02 mm
08:21 21.6 °C 20.4 °C 1010.4 hPa Calm   3.2 km/h 93 % 1.02 mm
08:26 21.6 °C 20.6 °C 1010 hPa NNW 3.2 km/h 3.2 km/h 94 % 1.02 mm
08:31 21.6 °C 20.6 °C 1010 hPa NW 1.6 km/h 3.2 km/h 94 % 1.02 mm
08:36 21.6 °C 20.6 °C 1010 hPa Calm   3.2 km/h 94 % 1.02 mm
08:41 21.6 °C 20.6 °C 1010 hPa Calm   3.2 km/h 94 % 1.02 mm
08:46 21.7 °C 20.7 °C 1010 hPa Calm   1.6 km/h 94 % 1.02 mm
08:51 21.8 °C 21 °C 1009.7 hPa Calm   1.6 km/h 95 % 0.76 mm
08:56 22.4 °C 21.7 °C 1009.7 hPa Calm   1.6 km/h 96 % 0.51 mm
09:01 22.9 °C 22.1 °C 1009.4 hPa Calm   1.6 km/h 95 % 0.25 mm
09:06 23.4 °C 22.4 °C 1009.4 hPa Calm   1.6 km/h 94 % 0 mm
09:11 23.8 °C 22.4 °C 1009.4 hPa Calm   3.2 km/h 92 % 0 mm
09:16 24.3 °C 22.7 °C 1009.4 hPa Calm   3.2 km/h 91 % 0 mm
09:21 24.7 °C 22.8 °C 1009.4 hPa SSW 1.6 km/h 4.8 km/h 89 % 0 mm
09:26 25.1 °C 22.6 °C 1009.4 hPa Calm   4.8 km/h 86 % 0 mm
09:31 25.7 °C 23 °C 1009.7 hPa SW 1.6 km/h 4.8 km/h 85 % 0 mm
09:36 26.1 °C 23 °C 1009.7 hPa Calm   3.2 km/h 83 % 0 mm
09:41 26.4 °C 22.5 °C 1009.7 hPa Calm   3.2 km/h 79 % 0 mm
09:46 26.7 °C 22.8 °C 1010 hPa ESE 3.2 km/h 3.2 km/h 79 % 0 mm
09:52 26.9 °C 22.3 °C 1010 hPa Calm   3.2 km/h 76 % 0 mm
09:57 27.3 °C 21.6 °C 1010 hPa Calm   3.2 km/h 71 % 0 mm
10:02 27.6 °C 21.6 °C 1010 hPa Calm   4.8 km/h 70 % 0 mm
10:07 28.2 °C 22.2 °C 1010 hPa South 3.2 km/h 4.8 km/h 70 % 0 mm
10:12 28.4 °C 21.7 °C 1010.4 hPa Calm   4.8 km/h 67 % 0 mm
10:17 28.4 °C 21.4 °C 1010.4 hPa ENE 1.6 km/h 4.8 km/h 66 % 0 mm
10:22 28.1 °C 21.4 °C 1010 hPa Calm   4.8 km/h 67 % 0 mm
10:27 27.8 °C 21.1 °C 1010 hPa NW 3.2 km/h 3.2 km/h 67 % 0 mm
10:32 27.7 °C 21.5 °C 1010 hPa West 1.6 km/h 4.8 km/h 69 % 0 mm
10:37 27.6 °C 21.2 °C 1009.7 hPa North 3.2 km/h 4.8 km/h 68 % 0 mm
10:42 28 °C 21.5 °C 1009.7 hPa ENE 1.6 km/h 4.8 km/h 68 % 0 mm
10:47 28.6 °C 22.4 °C 1009.7 hPa NNW 4.8 km/h 4.8 km/h 69 % 0 mm
10:52 28.8 °C 22.1 °C 1010 hPa Calm   4.8 km/h 67 % 0 mm
10:54 29.1 °C 22.1 °C 1010 hPa NNW 3.2 km/h 4.8 km/h 66 % 0 mm
10:58 29.2 °C 21.9 °C 1010 hPa West 1.6 km/h 4.8 km/h 65 % 0 mm
11:03 29.5 °C 22.5 °C 1010 hPa South 3.2 km/h 4.8 km/h 66 % 0 mm
11:08 29.8 °C 22 °C 1010 hPa WNW 3.2 km/h 4.8 km/h 63 % 0 mm
11:13 29.8 °C 22.8 °C 1010 hPa NNW 1.6 km/h 4.8 km/h 66 % 0 mm
11:18 29.8 °C 22.5 °C 1010 hPa NW 1.6 km/h 8 km/h 65 % 0 mm
11:23 30.2 °C 22.9 °C 1009.7 hPa South 4.8 km/h 8 km/h 65 % 0 mm
11:28 30.5 °C 22.4 °C 1010 hPa WSW 1.6 km/h 8 km/h 62 % 0 mm
11:33 30.8 °C 22.7 °C 1010 hPa North 3.2 km/h 6.4 km/h 62 % 0 mm
11:38 30.8 °C 22.9 °C 1010 hPa North 3.2 km/h 6.4 km/h 63 % 0 mm
11:43 30.7 °C 22.8 °C 1010 hPa NW 1.6 km/h 6.4 km/h 63 % 0 mm
11:45 30.7 °C 22.6 °C 1010 hPa South 1.6 km/h 6.4 km/h 62 % 0 mm
11:50 30.6 °C 23 °C 1010 hPa Calm   9.7 km/h 64 % 0 mm
11:55 30.9 °C 23 °C 1010 hPa NE 1.6 km/h 9.7 km/h 63 % 0 mm
12:00 30.8 °C 22.7 °C 1010 hPa East 1.6 km/h 8 km/h 62 % 0 mm
12:05 30.7 °C 22.8 °C 1010 hPa NNE 3.2 km/h 9.7 km/h 63 % 0 mm
12:10 30.9 °C 23.5 °C 1010 hPa ENE 3.2 km/h 9.7 km/h 65 % 0 mm
12:15 30.9 °C 23 °C 1010 hPa NW 1.6 km/h 9.7 km/h 63 % 0 mm
12:20 30.9 °C 23.3 °C 1010 hPa ESE 4.8 km/h 9.7 km/h 64 % 0 mm
12:25 30.7 °C 23.1 °C 1010 hPa North 1.6 km/h 9.7 km/h 64 % 0 mm
12:30 30.4 °C 23.1 °C 1009.7 hPa NW 6.4 km/h 11.3 km/h 65 % 0 mm
12:35 30.3 °C 23 °C 1009.7 hPa East 8 km/h 11.3 km/h 65 % 0 mm
12:40 30.2 °C 22.9 °C 1009.4 hPa NNW 6.4 km/h 11.3 km/h 65 % 0 mm
12:45 30.4 °C 23.8 °C 1009.4 hPa East 4.8 km/h 8 km/h 68 % 0 mm
12:50 30.8 °C 22.9 °C 1009.4 hPa ENE 4.8 km/h 8 km/h 63 % 0 mm
13:01 30.8 °C 22.7 °C 1009 hPa Calm   16.1 km/h 62 % 0 mm
13:05 30.9 °C 23.8 °C 1009 hPa SW 3.2 km/h 16.1 km/h 66 % 0 mm
13:11 31 °C 23.1 °C 1008.7 hPa ENE 4.8 km/h 16.1 km/h 63 % 0 mm
13:16 31 °C 23.9 °C 1008.4 hPa North 1.6 km/h 9.7 km/h 66 % 0 mm
13:21 31.1 °C 23.5 °C 1008.4 hPa Calm   9.7 km/h 64 % 0 mm
13:26 31.1 °C 24.5 °C 1008.4 hPa South 3.2 km/h 9.7 km/h 68 % 0 mm
13:31 31.2 °C 23.6 °C 1008 hPa ENE 4.8 km/h 11.3 km/h 64 % 0 mm
13:36 31.5 °C 24.1 °C 1008 hPa SSE 3.2 km/h 11.3 km/h 65 % 0 mm
13:41 31.9 °C 23.7 °C 1008.4 hPa SSE 3.2 km/h 11.3 km/h 62 % 0 mm
13:46 31.8 °C 23.6 °C 1008.4 hPa East 1.6 km/h 9.7 km/h 62 % 0 mm
13:51 31.8 °C 23.3 °C 1008.7 hPa East 4.8 km/h 9.7 km/h 61 % 0 mm
13:56 31.4 °C 23.2 °C 1008.7 hPa NNW 3.2 km/h 16.1 km/h 62 % 0 mm
14:01 31.2 °C 23 °C 1008.4 hPa Calm   16.1 km/h 62 % 0 mm
14:06 31.3 °C 23.1 °C 1008.4 hPa ESE 1.6 km/h 16.1 km/h 62 % 0 mm
14:11 31.6 °C 23.7 °C 1008 hPa ESE 11.3 km/h 11.3 km/h 63 % 0 mm
14:16 31.4 °C 24 °C 1007.7 hPa ESE 6.4 km/h 16.1 km/h 65 % 0 mm
14:21 31.3 °C 23.7 °C 1007.3 hPa SE 6.4 km/h 19.3 km/h 64 % 0 mm
14:26 31.1 °C 23.5 °C 1007 hPa ENE 4.8 km/h 19.3 km/h 64 % 0 mm
14:31 30.8 °C 23.7 °C 1007.3 hPa East 4.8 km/h 19.3 km/h 66 % 0 mm
14:36 30.5 °C 23.4 °C 1007.3 hPa North 6.4 km/h 17.7 km/h 66 % 0 mm
14:41 30 °C 23.2 °C 1007.3 hPa North 1.6 km/h 17.7 km/h 67 % 0 mm
14:46 29.8 °C 23.3 °C 1007.3 hPa ENE 6.4 km/h 16.1 km/h 68 % 0 mm
14:51 29.7 °C 23.4 °C 1007.3 hPa ESE 3.2 km/h 14.5 km/h 69 % 0 mm
14:56 29.4 °C 23.4 °C 1007.7 hPa ESE 1.6 km/h 12.9 km/h 70 % 0 mm
15:01 29.1 °C 23.5 °C 1008.4 hPa SW 3.2 km/h 12.9 km/h 72 % 0 mm
15:06 27.8 °C 22.3 °C 1009 hPa WNW 3.2 km/h 17.7 km/h 72 % 0 mm
15:11 26 °C 22.5 °C 1010 hPa NW 6.4 km/h 17.7 km/h 81 % 5.59 mm
15:16 24.3 °C 21.6 °C 1010.4 hPa NW 9.7 km/h 24.1 km/h 85 % 16.76 mm
19:27 21.5 °C 21.3 °C 1008 hPa SE 4.8 km/h -1607.7 km/h 99 % 0 mm
19:28 21.5 °C 21.3 °C 1008 hPa Calm   -1607.7 km/h 99 % 0 mm
19:29 21.5 °C 21.3 °C 1008 hPa Calm   -1607.7 km/h 99 % 0 mm
19:30 21.5 °C 21.3 °C 1008 hPa Calm   -1607.7 km/h 99 % 0 mm
Spring, Texas: Villages of Bridgestone
Compliments of Weather Underground - 2.25 mb

Script developed by  Jim McMurry - jmcmurry@mwt.net Adapted for the template by  Wim van der Kuil - Leuven-Template.eu

You find our weather info also at:

UK Metoffice

WeatherCloud

Weather Underground

Mid-South Weather Network

AWEKAS

Citizen Weather Observer Program (CWOP)

HAMweather, WeatherForYou, PWS Weather

Equipment we use:

Weather-station
Davis Vantage Vue

Weather-program
Meteohub

Weather-server
Debian 7.9 x86 (Guest)

Provider
DreamHost

Davis Vantage Vue

Meteohub

Debian 7.9 x86 (Guest)

DreamHost